Theta_e
323 326 327 328 329 326 322 321 319 319 322 320 316 316 321 331 318 310 337 358 334 331 346 339 335 347 356 359 352 346 346 345 348 352 349 349 348 348 350 350 351 354 354 355 355 355 355 352 351 353 354 354 355 355 355 357 358 360 362 363 364 364 364 364 363 363 362 362 362 362 361 361 360 360 360 359 359 359 359 359 359 359 357 356 354 352 351
322 324 325 327 328 327 323 322 323 321 322 321 318 320 324 326 322 322 339 353 346 344 350 343 340 353 368 369 355 346 346 350 356 358 353 348 347 348 350 350 350 352 353 355 354 355 356 353 351 352 353 354 354 354 355 356 357 359 361 363 364 364 365 364 364 363 363 362 362 362 361 361 361 360 359 359 359 359 359 359 359 359 358 357 355 353 351
318 322 326 326 325 326 323 322 325 322 321 322 320 321 324 323 324 328 332 336 340 346 357 356 351 360 367 359 353 354 355 358 362 361 355 350 348 349 349 349 349 350 353 354 354 355 358 354 351 351 352 354 354 354 355 355 355 357 359 361 363 364 365 365 364 364 363 363 362 362 362 361 360 360 359 359 359 359 359 359 359 359 359 358 356 354 353
315 319 323 323 322 324 319 319 325 324 320 321 319 322 327 325 327 331 327 324 330 340 351 350 350 361 358 345 354 362 360 364 366 358 355 353 348 350 351 351 352 352 353 356 355 356 356 353 351 350 351 353 353 354 355 354 355 356 358 360 361 363 364 364 365 364 363 363 363 362 362 361 361 361 360 359 359 358 358 359 359 359 359 357 357 355 353
317 319 321 321 319 318 314 316 323 325 326 325 322 324 327 325 329 329 322 324 337 345 344 339 341 352 352 352 366 367 363 373 370 357 354 354 350 351 352 353 355 354 353 355 356 357 355 352 351 351 351 352 353 354 354 354 355 355 356 359 360 362 363 363 365 365 364 364 363 362 362 362 361 361 360 360 360 359 358 358 358 359 359 358 357 356 354
321 322 322 321 316 313 317 324 328 329 330 329 327 328 331 332 334 330 326 333 344 345 341 338 337 340 345 352 361 359 358 366 368 363 359 355 351 352 352 352 353 353 354 354 353 353 352 352 352 352 352 353 353 354 355 355 355 355 355 357 359 361 363 364 365 365 364 364 364 363 363 362 362 362 361 360 360 359 359 359 358 359 359 358 357 356 355
326 326 322 318 317 322 333 336 331 330 329 332 340 347 353 355 351 344 341 345 350 349 345 343 344 344 344 347 350 348 346 349 356 363 366 363 358 354 353 352 351 350 353 355 354 351 350 353 355 354 353 354 353 353 355 355 355 355 355 356 358 360 362 364 365 365 365 365 364 363 363 362 362 362 362 361 361 360 360 359 358 359 358 358 358 356 355
328 324 319 319 327 341 349 342 335 336 333 336 349 355 357 359 358 356 352 351 355 357 351 349 349 346 345 350 351 349 348 348 348 349 354 358 359 358 358 357 356 355 351 350 351 351 351 353 355 355 355 354 354 354 355 355 356 356 355 355 358 359 361 364 365 366 366 365 365 364 363 362 363 362 362 362 361 361 360 359 359 359 359 358 358 357 356
329 324 320 323 328 333 340 342 343 344 338 335 350 354 352 354 356 356 356 359 363 362 359 359 351 343 350 361 357 350 351 355 353 349 347 345 346 352 358 358 357 355 351 348 348 348 352 354 355 356 356 355 355 356 355 356 356 357 357 356 357 359 361 363 364 366 366 366 365 364 363 363 363 362 363 362 362 362 361 360 360 360 359 359 358 357 356
332 327 322 323 321 324 337 347 345 345 343 342 353 358 353 354 357 355 357 363 367 369 373 373 363 361 374 373 359 354 354 355 358 358 355 351 347 344 348 352 353 350 349 352 352 351 355 357 356 357 357 356 357 356 357 358 357 357 358 357 357 358 360 361 363 365 366 366 365 365 364 363 363 362 363 363 362 362 362 361 360 360 360 359 358 357 356
327 325 323 323 322 331 352 357 342 338 343 347 355 357 352 356 358 354 355 358 360 364 370 372 372 384 391 371 357 358 357 354 356 358 358 359 359 354 349 347 348 346 345 351 354 353 355 357 359 360 359 358 358 357 357 359 358 358 358 358 358 358 359 360 362 364 366 366 365 365 364 364 363 363 363 363 363 362 362 362 361 360 360 359 358 357 356
325 324 325 325 327 342 362 356 339 339 346 345 346 346 348 357 356 352 351 352 354 356 359 362 369 381 383 369 358 357 355 353 355 357 357 358 360 361 357 352 350 343 341 352 358 356 354 355 359 362 362 361 359 358 359 359 358 358 358 358 358 358 358 360 361 363 366 366 366 366 365 364 364 363 363 363 363 363 362 362 361 361 360 359 357 356 355
327 325 323 323 330 350 362 350 341 343 341 335 333 339 352 358 354 352 353 352 353 355 357 362 365 365 364 360 355 353 352 352 354 355 354 354 354 356 356 354 357 353 344 349 355 357 355 356 356 359 363 363 361 360 360 359 359 359 358 358 358 358 358 359 360 363 365 365 366 366 365 365 365 364 364 363 363 363 362 362 361 360 359 358 357 355 354
335 333 330 327 332 347 350 343 345 348 340 332 335 345 356 356 354 358 357 355 355 356 356 358 359 355 352 351 350 349 349 351 353 352 351 352 353 353 353 353 354 356 355 353 354 356 357 358 356 357 361 363 362 362 361 360 360 360 359 359 358 357 358 359 360 363 365 366 367 366 365 366 365 364 364 364 363 363 362 360 360 358 357 355 354 352 351
343 344 338 330 333 341 341 339 349 358 351 344 347 353 355 353 355 357 355 354 355 354 353 353 352 351 349 347 347 347 347 348 350 349 349 351 352 353 353 352 351 353 357 358 357 359 361 361 362 361 361 361 362 361 361 361 362 360 360 360 359 358 359 360 362 365 366 366 367 366 366 366 365 364 365 364 364 363 361 360 359 357 355 353 350 349 348
346 348 344 338 337 339 340 343 350 354 351 349 351 353 353 353 352 352 352 353 351 350 352 351 349 349 348 346 346 347 346 346 346 346 346 347 348 350 351 351 350 350 354 356 357 361 364 365 366 365 364 364 362 361 362 363 362 362 362 363 362 362 363 364 365 366 367 367 367 366 366 366 364 364 364 364 364 363 361 360 358 355 353 351 349 347 347
343 344 344 342 339 338 341 345 349 348 347 348 348 349 351 350 349 349 350 350 348 348 349 348 348 348 347 346 346 345 345 345 344 343 344 344 346 347 348 348 348 348 351 353 354 356 359 362 364 366 366 365 362 362 363 363 363 365 366 366 367 366 366 366 367 367 367 367 366 366 365 365 364 363 363 363 362 361 360 359 356 353 350 349 349 347 346
342 342 340 338 339 339 340 342 344 343 343 344 343 343 345 344 344 344 344 344 345 345 345 346 347 346 344 344 344 344 344 343 342 342 342 342 343 344 345 345 346 347 349 350 351 352 354 356 359 361 363 363 362 363 365 365 365 367 368 369 368 367 367 367 366 366 366 364 364 364 364 363 363 362 362 362 361 359 358 356 354 351 348 348 348 347 346
342 344 342 338 339 341 339 339 340 339 338 338 338 339 340 339 338 338 338 339 339 339 340 341 341 341 342 343 343 342 343 342 340 340 341 341 341 343 343 344 345 347 348 349 349 349 349 351 353 355 356 358 360 363 367 368 368 369 369 368 367 366 366 366 364 364 363 362 361 361 361 360 360 359 360 360 359 357 356 354 352 350 348 347 346 344 344
342 343 341 338 339 340 338 337 337 336 335 335 333 334 334 333 333 333 333 333 334 334 335 335 336 337 338 340 341 341 341 341 341 341 341 342 342 342 342 343 345 347 347 346 346 345 345 346 348 349 351 353 355 358 360 362 365 365 363 363 363 363 362 360 360 360 359 358 357 357 355 356 356 356 357 358 357 355 355 354 352 349 346 345 344 344 344
343 341 339 338 341 341 339 338 336 334 333 332 331 330 330 330 330 330 330 330 330 331 331 332 332 333 333 334 336 336 335 336 337 338 340 342 342 342 343 343 344 345 344 343 343 343 342 342 344 346 346 348 350 352 352 354 357 356 353 353 355 355 353 351 350 349 349 349 351 352 352 352 352 352 354 356 356 355 354 355 355 352 349 346 345 345 346
345 341 338 339 342 342 339 337 336 333 331 330 329 329 328 328 328 328 328 328 327 327 328 329 330 331 332 332 332 332 332 332 332 333 337 340 342 343 343 343 343 343 342 340 340 341 340 340 341 344 345 345 346 348 348 349 351 350 348 347 347 347 346 344 342 341 340 340 343 347 348 347 346 345 347 351 354 353 352 352 353 354 352 351 349 348 347
342 338 337 339 340 339 337 335 334 334 332 328 327 326 326 325 326 326 326 327 327 326 327 327 327 329 330 330 330 330 329 330 331 332 334 337 340 343 344 343 344 343 342 340 339 339 339 339 339 342 344 344 345 345 345 345 346 346 345 344 343 342 341 340 340 340 339 338 340 342 343 345 344 342 341 343 347 350 351 350 350 351 351 351 350 349 348
339 337 336 337 338 337 336 334 335 336 335 330 328 327 326 324 323 324 325 326 326 326 326 326 326 326 327 328 328 328 327 328 329 331 332 334 338 341 343 343 344 344 344 342 341 341 341 341 342 344 345 344 345 345 344 343 343 344 343 342 341 340 338 337 339 340 339 338 339 340 341 343 343 342 340 339 340 343 347 349 349 348 348 348 347 347 346
338 338 336 336 336 336 335 334 335 336 336 333 332 330 328 326 324 324 325 326 326 325 325 326 326 325 326 326 326 325 325 326 327 329 331 333 335 337 340 341 342 343 344 344 343 344 343 342 343 344 345 345 345 345 345 344 344 345 345 343 342 340 339 339 339 339 339 339 338 338 339 339 340 341 340 338 336 336 340 344 346 346 346 345 344 343 343
337 337 336 335 335 334 335 335 335 334 333 332 332 331 329 328 327 326 325 326 327 326 326 327 327 326 325 325 324 323 324 325 326 327 329 331 333 334 335 337 339 342 343 343 344 344 344 343 343 343 344 346 347 345 346 346 346 346 346 344 342 342 342 341 341 340 340 340 339 339 341 341 340 340 340 339 338 336 335 337 339 341 342 342 342 341 341
334 336 335 335 334 334 334 335 335 333 330 329 329 328 327 327 326 326 326 326 326 326 326 326 326 327 326 324 322 322 323 324 325 326 327 329 331 331 331 332 335 339 341 341 341 342 343 344 344 342 342 345 346 346 346 346 345 345 345 344 344 344 343 343 342 341 341 340 340 341 342 342 343 342 341 341 341 339 336 335 334 333 335 337 339 339 340
330 332 334 335 335 334 333 333 333 333 330 327 326 325 324 323 324 325 327 327 327 327 326 325 326 329 330 326 321 321 323 324 325 327 328 329 329 328 326 326 329 333 337 339 338 339 340 340 341 342 342 342 344 345 346 346 346 346 346 346 346 345 344 344 343 341 341 341 341 341 340 339 340 340 339 338 337 336 336 334 332 330 330 332 334 335 336
328 329 332 333 333 333 332 332 334 333 330 328 326 324 323 323 324 326 327 328 330 331 330 329 328 329 330 327 323 323 324 325 326 327 327 328 327 325 323 322 323 328 333 336 336 337 338 337 338 340 340 340 343 346 347 347 348 348 347 347 346 345 344 344 343 342 341 341 340 340 339 338 338 338 336 336 336 336 334 331 329 328 328 329 331 332 333
327 328 329 330 330 330 331 331 332 332 331 330 329 327 326 325 324 325 326 327 329 331 331 331 331 330 329 327 325 325 325 325 325 325 326 327 327 323 320 320 322 324 327 331 333 334 335 337 338 338 338 340 343 346 347 348 348 348 346 346 345 345 344 344 343 342 341 340 339 339 338 338 338 336 335 334 335 334 332 330 329 328 328 329 331 333 333
327 328 328 328 328 329 329 330 330 331 331 329 328 328 328 327 326 326 326 326 328 329 330 332 333 333 331 327 324 323 323 324 324 324 325 327 328 326 321 320 321 323 326 330 332 332 333 336 337 336 336 339 342 345 346 347 347 346 345 345 344 344 344 344 343 342 341 340 339 338 338 337 336 335 334 333 332 331 330 329 327 327 328 329 330 332 333
329 329 328 328 328 328 328 328 329 329 329 328 328 327 327 328 328 328 327 327 328 330 331 332 332 332 331 328 324 323 323 324 325 326 326 327 329 329 324 320 320 323 325 329 332 333 334 336 337 336 335 337 340 342 344 345 346 345 344 343 343 343 343 343 343 342 342 341 340 338 338 337 336 334 334 333 332 330 329 328 326 326 327 328 329 331 332
331 330 329 328 329 329 328 328 328 328 328 328 327 327 326 326 327 328 328 329 330 332 333 331 329 328 328 328 327 325 324 325 326 328 328 328 330 330 327 322 318 318 321 325 329 332 333 335 337 336 334 335 337 338 340 343 344 344 344 343 342 342 341 340 340 341 341 341 340 339 339 337 336 335 335 334 332 330 329 328 327 327 327 329 330 331 332
331 332 330 329 329 329 329 328 328 327 327 327 327 327 326 326 327 327 328 328 329 331 331 330 329 328 327 328 327 326 326 328 330 330 328 329 331 332 329 324 319 317 317 319 322 324 327 333 337 337 334 334 336 335 337 339 340 341 342 342 341 341 340 339 339 339 339 339 339 339 339 337 337 336 335 334 333 332 331 330 329 328 327 327 328 330 331
329 329 329 328 327 328 328 327 327 326 326 326 326 326 326 326 327 327 328 327 327 327 328 328 328 329 328 327 327 327 328 329 330 328 327 329 331 332 332 329 327 325 324 323 323 321 321 327 335 337 334 333 335 334 335 336 338 338 339 339 339 340 340 339 338 338 338 338 338 338 337 337 337 337 336 336 334 333 332 330 328 328 327 325 325 327 328
327 327 327 326 325 326 326 326 325 325 325 326 326 326 326 327 327 327 327 326 326 326 326 326 327 327 326 327 327 328 329 329 328 327 329 330 331 331 332 332 331 331 330 329 329 327 323 325 332 335 334 332 333 333 333 334 337 337 336 337 339 339 339 339 338 338 337 337 337 337 337 337 336 337 337 336 334 333 332 330 328 328 328 326 326 326 326
325 325 325 325 324 325 325 325 325 325 325 326 326 326 327 327 326 325 325 325 325 326 326 326 326 326 326 327 327 328 329 330 329 329 329 329 329 329 330 329 330 330 331 331 333 334 332 332 334 335 334 333 335 335 334 334 335 335 335 336 337 338 338 337 336 336 337 338 337 336 336 336 336 336 336 335 334 333 332 331 329 329 328 328 327 327 326
323 323 324 324 324 324 324 324 324 324 325 326 326 325 325 325 324 324 325 325 325 325 326 325 325 326 326 326 327 328 328 329 329 329 328 328 328 328 328 328 329 330 331 331 332 333 333 334 334 334 333 333 334 335 336 335 334 333 333 333 335 337 336 335 335 334 335 335 334 334 333 333 333 333 334 334 334 333 332 330 329 328 328 328 328 327 326
322 323 323 323 323 323 324 324 324 323 324 325 325 325 324 324 324 324 325 325 325 325 325 325 325 325 325 325 326 326 327 328 327 327 327 327 327 327 328 328 329 329 329 329 329 329 331 332 332 332 332 332 332 333 335 335 334 333 333 333 335 336 335 335 334 333 333 332 332 332 332 331 330 330 331 333 333 332 331 330 329 329 328 328 328 327 326
323 323 322 322 322 322 322 323 323 323 323 324 324 324 323 322 322 322 322 324 325 325 324 325 325 324 324 325 325 325 326 327 327 326 326 327 327 327 328 328 327 324 323 324 324 324 326 329 329 330 331 331 330 331 333 334 334 334 333 333 334 334 334 334 333 332 331 331 331 331 330 330 329 328 328 330 331 331 330 330 330 329 329 329 328 327 325
323 322 321 321 321 320 319 320 320 320 321 322 322 321 320 319 320 320 320 321 324 325 325 325 325 324 324 324 324 325 326 326 325 326 326 326 326 326 328 329 326 322 320 320 320 320 321 323 325 327 328 328 329 330 331 332 332 332 332 332 332 332 332 332 332 331 330 329 330 330 329 329 328 327 327 328 329 331 330 330 329 329 329 328 327 326 324
322 321 322 323 322 319 318 318 318 319 319 319 319 319 319 318 319 319 318 319 321 324 326 326 326 325 324 324 324 324 324 323 322 322 323 324 325 326 329 330 327 323 320 319 319 319 319 319 320 323 325 326 327 328 329 330 331 331 331 332 332 332 332 331 330 329 329 329 329 329 328 328 328 327 327 327 328 329 329 328 327 327 328 327 327 326 325
323 322 323 323 321 319 317 318 319 319 319 318 318 319 319 318 318 319 318 319 319 320 322 324 324 324 324 324 324 323 323 321 320 319 321 322 324 325 327 327 326 323 321 319 318 318 319 318 319 321 323 324 325 326 328 329 329 330 330 330 330 330 330 330 329 329 329 328 328 328 328 327 326 325 325 326 327 327 327 327 326 326 327 327 326 325 324
321 321 321 321 319 318 317 318 318 319 319 318 318 318 319 319 319 319 319 319 319 318 318 319 320 321 322 321 321 321 322 321 319 319 319 319 320 321 322 323 323 323 322 321 319 318 318 318 318 320 322 323 324 324 325 326 327 328 329 329 328 327 327 327 326 326 326 327 327 326 326 326 325 324 324 324 325 326 326 326 326 325 325 325 324 323 322
319 320 320 320 319 318 318 318 318 319 319 318 318 318 318 319 319 319 318 318 318 318 317 317 317 317 318 318 317 318 320 320 319 319 319 321 321 320 319 318 319 321 322 323 322 322 321 320 320 321 323 324 323 323 323 324 325 326 326 327 327 326 326 326 325 325 325 325 325 325 324 325 324 323 323 323 324 325 325 325 325 325 326 325 324 323 322
319 319 319 319 319 318 318 318 318 318 317 317 318 318 317 317 318 318 317 317 316 316 316 317 317 316 316 316 316 316 316 317 317 317 317 319 320 320 318 316 316 318 320 321 321 321 321 320 319 320 322 322 322 322 322 322 323 323 324 324 325 325 325 325 325 325 325 325 325 324 324 325 325 324 323 323 324 325 324 323 323 323 325 325 324 324 323
319 319 319 319 318 318 317 318 317 317 318 319 319 318 316 316 317 317 315 314 314 314 315 315 316 316 316 316 316 316 315 314 314 314 314 315 316 317 317 317 317 317 318 318 318 318 318 318 318 318 319 320 320 321 321 322 322 322 322 322 322 323 324 324 324 324 324 324 323 322 322 323 324 324 324 323 324 324 323 322 320 320 322 322 322 322 323
319 319 318 318 317 317 317 317 317 317 318 319 318 317 316 315 315 315 315 314 314 314 314 314 314 315 314 315 315 314 313 313 313 314 314 314 314 315 316 316 316 315 316 315 314 315 316 316 317 317 318 319 319 319 320 321 321 321 320 320 320 321 321 321 322 322 322 321 321 321 321 321 322 322 321 321 321 322 321 319 318 318 318 318 318 319 319
317 317 316 315 315 315 315 315 315 316 316 316 315 314 314 314 313 313 313 312 312 313 313 314 314 313 313 313 312 312 312 312 312 313 313 312 312 312 313 313 313 312 312 311 311 312 313 314 315 316 318 318 318 318 318 319 318 318 319 319 319 319 319 319 319 319 319 320 320 320 320 320 320 320 320 320 319 319 319 318 318 318 317 316 316 316 315
315 314 313 312 312 312 313 313 313 313 313 313 312 312 312 313 313 313 313 312 312 312 312 312 313 313 313 312 312 312 312 311 312 312 312 311 310 310 311 311 311 310 309 309 309 310 311 313 314 315 316 316 316 316 317 317 317 316 316 316 316 317 318 318 317 317 317 317 318 318 318 318 318 319 319 318 318 318 318 317 317 317 317 317 316 315 314
314 313 312 311 311 310 311 311 312 312 311 311 311 311 310 310 312 313 313 312 312 311 310 309 310 311 312 312 311 311 311 311 310 310 310 310 310 309 308 308 309 309 309 309 308 309 310 311 313 314 315 315 314 314 314 315 314 314 314 314 314 314 314 315 315 314 314 314 315 316 316 317 317 317 317 317 317 317 317 317 316 317 316 316 315 314 313
312 311 311 310 310 310 309 309 310 311 311 310 310 309 309 308 308 309 311 310 309 309 308 307 307 308 309 309 309 310 310 310 310 309 309 309 309 308 307 307 307 307 307 308 308 308 308 309 310 312 313 313 313 313 312 312 312 311 311 311 311 311 311 311 311 311 311 311 312 312 312 313 314 315 315 315 315 315 314 315 315 315 315 315 314 313 313
Wind_Speed
17 16 15 14 8 8 12 14 14 16 18 18 17 14 10 10 8 8 6 8 9 9 8 9 12 10 7 9 10 9 10 12 12 12 15 15 14 14 14 13 13 15 15 16 16 16 17 20 24 27 30 32 34 34 36 37 38 39 40 40 40 39 40 41 42 43 42 42 42 42 42 41 42 42 41 40 39 39 38 39 40 40 39 39 38 38 38
18 17 18 18 12 7 9 13 14 15 18 20 20 16 12 12 10 8 9 11 10 8 9 10 10 8 6 7 6 4 7 10 12 11 12 15 16 15 15 15 15 16 17 17 17 17 16 17 20 24 27 30 33 34 35 37 38 40 40 39 39 39 40 42 42 41 41 41 40 41 41 42 42 42 41 40 39 38 38 39 39 39 38 37 37 38 38
16 18 19 19 17 11 8 10 12 14 17 18 18 15 10 9 7 6 9 11 9 7 7 8 8 7 4 3 5 6 7 8 10 11 11 13 14 14 15 15 16 16 17 16 17 17 16 17 21 25 27 31 33 34 34 36 39 40 39 39 40 40 42 41 39 39 40 40 39 40 41 41 41 41 40 39 39 38 38 38 38 38 37 37 38 39 38
12 16 19 21 20 13 10 11 11 11 13 14 13 12 9 8 7 7 8 8 7 7 8 7 6 6 6 5 6 7 6 6 7 10 12 13 14 14 13 13 12 13 15 15 15 15 15 17 22 26 29 30 31 32 35 38 40 40 40 40 41 41 41 39 38 39 40 40 39 40 41 41 41 40 39 38 38 38 38 38 38 37 37 37 39 39 38
9 13 18 19 16 12 11 11 11 9 9 8 7 8 10 11 10 9 8 8 8 8 8 8 7 7 7 8 7 6 6 8 8 9 11 12 13 14 13 12 12 13 13 13 14 15 15 19 26 32 33 32 32 36 40 41 40 39 39 40 41 41 40 38 39 40 40 40 40 40 41 41 40 38 38 38 38 38 39 39 38 37 37 38 38 39 39
6 12 14 12 11 11 9 6 12 12 10 9 6 3 6 8 6 5 5 6 9 9 8 9 10 7 4 2 1 2 1 5 8 9 10 12 13 14 14 14 15 14 12 12 14 18 23 28 33 36 36 36 38 41 41 40 39 39 40 40 39 39 38 38 40 41 40 40 40 41 41 40 38 38 38 38 38 39 39 38 36 37 38 38 39 39 40
5 7 12 10 11 10 6 4 10 13 12 13 9 5 5 6 6 2 0 1 5 8 9 10 8 6 8 9 10 11 9 4 1 6 8 10 11 12 12 13 15 16 16 16 15 17 24 30 32 32 33 36 38 38 37 36 37 39 40 39 38 37 37 38 40 40 40 40 40 40 39 39 39 39 39 38 38 38 37 37 38 39 39 39 39 39 40
5 3 9 10 9 5 4 3 2 7 10 12 11 8 7 8 7 2 3 2 4 3 4 6 8 11 13 13 12 11 11 9 6 3 3 5 7 9 10 12 14 15 16 17 19 22 27 31 31 32 35 38 37 34 34 34 35 37 38 37 36 36 37 38 39 41 41 41 39 39 39 39 39 39 39 38 38 38 37 37 38 38 38 39 39 39 39
3 3 4 4 3 2 4 3 0 3 7 10 11 7 4 7 7 3 3 4 4 4 3 1 6 10 12 12 9 11 12 10 8 8 7 6 4 5 5 7 9 12 15 18 21 25 27 29 31 33 36 38 35 32 32 32 33 34 34 33 35 36 37 39 40 41 42 41 39 39 39 39 39 40 39 39 39 39 38 37 37 38 38 39 39 38 38
2 2 3 3 5 4 4 4 4 1 5 11 13 9 2 6 7 5 2 6 6 5 5 5 2 7 10 8 4 8 11 11 10 10 9 9 8 7 6 5 6 9 14 18 21 22 21 22 28 31 32 32 31 29 29 31 32 31 31 33 35 36 37 40 41 42 42 42 40 39 39 40 40 39 39 39 39 39 39 39 38 38 38 37 36 37 37
4 2 4 3 4 5 6 5 2 2 8 11 12 9 1 5 6 6 2 6 7 6 6 6 5 6 6 3 2 6 8 9 10 9 9 9 8 8 7 5 5 8 13 16 19 19 17 19 24 27 27 28 27 26 27 30 30 29 30 34 37 38 40 42 42 42 42 42 42 40 40 41 41 40 40 40 40 40 39 39 37 36 36 35 34 35 36
6 4 3 2 2 3 5 6 5 5 8 9 10 5 4 4 4 5 3 7 6 5 7 8 8 7 4 4 2 3 5 6 8 9 9 9 8 8 8 7 6 8 11 12 12 13 16 22 26 26 27 27 25 25 28 29 28 29 34 39 41 42 42 40 40 41 42 42 43 42 42 41 40 40 40 39 38 38 37 36 35 33 33 34 33 34 35
7 6 4 2 1 2 3 4 4 5 7 6 5 5 6 3 1 2 5 8 5 6 8 7 6 5 3 3 1 2 4 5 6 8 8 8 8 8 9 11 10 6 7 10 12 16 21 26 25 23 24 25 25 28 29 25 26 34 40 42 41 40 38 37 38 41 42 43 43 42 42 41 39 39 39 38 37 37 35 34 32 31 31 32 33 33 34
4 3 3 2 1 1 2 3 2 3 4 4 5 3 3 5 5 4 6 7 6 7 9 7 6 5 4 4 4 5 6 6 6 7 8 8 10 11 11 13 13 10 5 4 8 14 19 22 21 19 19 20 22 25 24 25 34 42 42 40 38 37 36 37 38 40 40 41 41 41 40 40 38 37 37 36 36 35 33 31 30 29 30 30 29 29 29
4 2 2 4 2 4 10 9 5 3 3 6 7 6 6 6 6 7 7 7 6 7 8 7 6 5 5 6 6 6 8 8 7 8 8 8 8 9 10 11 12 11 6 2 2 7 12 16 18 19 20 19 18 17 18 24 33 36 35 35 36 35 35 36 37 38 39 39 39 39 39 40 38 36 34 34 34 33 31 30 30 29 28 27 25 23 23
3 3 3 3 3 11 14 7 1 3 4 7 10 10 7 5 6 6 6 6 6 6 8 8 7 7 8 8 7 7 8 9 9 9 10 10 9 9 9 11 14 12 7 6 4 2 7 10 14 18 20 19 16 15 18 22 22 21 24 28 30 31 32 34 34 35 37 38 39 38 39 39 37 35 34 34 33 32 32 31 29 27 25 25 23 22 21
3 2 3 5 8 11 10 4 7 9 10 10 11 12 9 6 5 5 5 6 6 6 7 8 8 8 8 8 9 9 9 9 9 9 9 10 11 11 11 14 17 15 11 10 11 9 7 4 4 11 17 19 17 16 20 21 18 18 22 24 26 28 30 31 33 34 34 36 37 38 40 40 38 36 35 33 30 29 29 28 26 24 23 23 23 22 22
4 3 3 9 11 10 12 11 9 11 12 10 11 12 11 7 6 6 7 7 6 6 7 8 8 7 7 8 9 8 8 8 8 8 8 9 10 11 11 14 17 16 14 13 12 12 16 19 13 5 3 8 10 11 16 20 22 25 27 25 24 24 25 27 30 32 33 33 34 36 38 38 37 36 35 33 29 27 26 25 24 24 24 24 23 23 22
4 2 5 11 12 9 12 13 11 11 11 10 10 11 10 8 8 8 8 8 8 8 8 9 9 8 8 9 8 7 7 8 8 9 9 9 9 10 11 13 14 13 11 11 11 11 16 21 20 15 11 10 8 7 10 15 21 26 28 28 25 23 24 26 28 31 32 32 32 33 33 32 32 31 31 31 29 28 27 25 25 24 25 24 23 22 22
2 2 6 11 9 8 13 12 9 10 10 10 12 11 10 10 10 9 9 9 9 8 8 9 10 10 8 9 9 8 8 7 7 8 8 8 9 10 12 14 13 11 9 10 11 11 13 18 19 16 15 15 14 13 12 12 16 18 17 19 22 22 21 21 22 25 29 31 33 31 29 29 28 27 27 29 28 27 28 28 27 26 25 25 24 24 24
2 3 6 9 7 10 15 14 11 9 8 8 11 12 12 12 12 12 11 10 9 9 8 8 11 12 9 8 9 9 9 9 8 8 8 8 8 10 13 14 12 10 10 11 12 12 12 16 18 16 15 15 15 17 18 18 20 21 18 15 14 16 18 15 13 16 22 29 35 36 34 32 29 24 24 27 27 26 27 28 29 28 26 26 27 27 27
1 1 3 6 5 6 9 11 11 10 8 6 8 9 10 11 11 12 13 12 10 10 9 8 11 12 9 7 9 10 9 9 10 10 10 8 8 10 12 14 12 11 10 10 12 11 10 12 15 14 13 12 13 15 20 23 26 27 25 20 16 13 15 17 18 20 22 28 34 37 37 35 31 25 22 24 25 25 24 24 26 27 26 26 27 28 28
1 1 1 4 5 5 6 8 11 11 9 6 7 8 9 9 8 8 12 12 11 10 8 8 10 11 9 8 10 11 10 10 10 12 13 11 10 11 12 12 11 12 12 11 10 9 7 7 9 9 10 11 12 13 17 22 26 29 29 26 22 17 16 18 20 21 22 24 30 34 35 34 33 28 24 21 19 21 21 21 21 23 23 23 24 25 25
2 1 2 3 5 5 5 7 11 11 9 6 6 8 8 8 7 7 8 10 9 9 8 8 8 9 9 9 10 11 11 10 10 12 15 17 17 16 16 16 14 13 13 12 11 10 9 8 8 6 7 10 13 16 19 22 25 27 26 26 25 23 22 23 23 22 22 23 28 32 32 31 30 28 25 23 20 18 18 19 19 19 19 19 20 21 22
1 2 3 4 6 6 3 5 9 9 7 7 7 8 9 9 8 7 7 7 7 8 9 8 7 8 9 8 9 10 10 10 12 14 16 20 22 21 20 20 18 17 15 14 14 14 13 13 13 11 10 7 9 15 21 24 26 26 25 26 27 26 26 27 26 24 23 24 26 29 28 27 26 26 24 23 22 20 19 19 18 19 19 18 19 20 21
2 3 4 6 7 5 3 4 7 7 6 6 7 8 9 9 9 8 7 7 6 7 8 7 6 8 10 8 8 9 9 10 14 16 15 15 16 16 17 19 20 21 20 19 18 18 16 15 17 17 14 9 7 11 15 19 23 23 24 28 29 27 25 26 25 25 26 27 27 28 27 26 25 23 22 23 23 22 20 18 17 17 17 18 19 20 20
0 1 2 5 7 6 5 7 8 6 5 6 7 7 7 7 8 8 7 8 8 9 9 8 6 7 9 9 9 9 10 11 13 13 12 12 12 13 17 21 24 24 24 23 21 21 20 19 18 19 18 14 11 16 21 23 22 21 21 23 25 24 24 26 26 25 26 27 28 28 28 28 27 26 25 25 25 23 21 20 19 17 16 16 18 18 19
4 4 3 3 6 6 6 8 10 9 7 6 6 5 5 5 7 8 8 8 9 8 9 10 9 7 6 7 8 8 9 10 10 9 10 12 13 15 19 24 25 25 25 24 23 23 25 25 22 21 20 15 12 19 28 28 24 22 22 21 22 22 23 24 24 23 25 27 27 26 26 26 27 27 27 25 22 21 20 21 21 20 18 17 16 16 17
8 6 3 2 6 7 7 8 11 12 9 6 5 4 4 4 6 7 7 7 6 6 7 8 9 9 8 7 7 7 7 8 9 9 10 14 18 18 19 23 27 29 29 27 24 24 25 25 25 24 21 16 13 19 27 27 24 23 22 21 22 21 21 21 22 22 23 24 24 24 24 24 25 26 25 23 22 22 22 21 20 19 19 18 17 16 16
10 9 6 4 7 8 8 9 10 10 9 8 6 4 4 5 6 6 6 6 6 6 6 5 7 8 9 8 8 8 7 7 8 9 12 17 20 22 23 25 26 24 23 23 24 24 24 24 24 24 24 21 18 20 24 24 23 23 23 22 22 22 21 21 21 22 22 22 22 23 23 23 24 23 22 21 22 23 23 22 22 22 21 20 18 18 18
13 12 9 7 9 11 11 9 9 9 8 6 6 5 4 5 6 6 5 5 5 5 5 5 6 7 7 7 9 11 11 11 11 12 14 17 19 22 26 27 21 13 12 17 22 24 25 25 25 24 25 25 22 19 20 22 22 22 22 22 22 22 21 21 21 21 22 22 22 22 21 21 21 21 20 19 19 20 21 22 22 22 22 20 19 20 21
13 12 10 9 9 11 11 10 9 9 9 7 6 6 5 4 6 6 4 4 4 4 5 6 5 5 7 9 11 12 12 13 14 14 15 17 18 18 22 24 21 17 17 20 23 24 25 25 24 23 25 26 23 20 18 18 19 19 20 21 22 21 21 21 20 20 21 21 20 20 21 21 21 20 19 18 17 19 21 21 21 20 20 20 20 21 22
9 8 6 6 7 9 10 9 8 9 9 7 6 6 6 6 6 5 3 3 3 4 4 5 6 7 9 10 10 10 11 11 12 12 13 15 16 16 17 18 19 19 19 20 24 26 26 24 22 21 21 22 22 21 19 17 17 17 18 19 20 19 18 19 20 21 21 20 20 20 20 21 21 20 20 19 19 19 19 19 18 19 18 19 20 22 22
6 5 3 2 3 5 7 7 6 6 6 5 5 6 7 7 6 6 6 5 4 4 4 5 7 10 11 10 10 10 9 8 6 6 9 11 13 14 15 15 15 15 15 18 22 24 23 21 20 18 17 17 17 18 17 16 16 16 16 16 16 16 16 16 18 19 19 18 18 19 20 21 21 21 21 20 20 20 19 17 17 18 17 17 18 21 22
4 5 4 3 3 4 5 6 6 5 5 5 5 6 7 6 7 8 8 7 8 8 7 7 8 10 10 9 8 8 7 6 6 6 10 13 13 13 15 16 15 14 14 16 18 17 16 17 18 16 14 14 14 14 14 13 13 15 16 14 13 13 13 14 14 16 16 17 17 18 19 20 21 22 23 22 21 19 19 18 18 19 19 18 18 19 20
4 5 4 3 4 7 8 7 6 6 6 5 6 6 7 7 8 9 9 10 12 13 13 12 12 11 10 8 7 6 6 7 8 10 12 14 15 15 16 16 15 13 13 14 15 13 11 12 14 13 11 10 10 10 10 9 8 10 11 11 11 13 14 14 13 12 13 14 15 16 17 19 20 21 22 21 21 20 19 18 18 18 19 19 19 19 20
7 7 5 5 7 9 9 8 8 9 8 7 7 7 7 8 9 11 12 13 14 15 15 15 13 10 9 11 13 12 12 12 12 12 14 15 18 19 18 16 15 13 9 10 13 14 12 9 9 11 11 9 7 5 4 3 4 5 6 7 10 13 14 13 10 8 7 9 12 14 16 17 19 21 22 22 22 21 20 19 18 19 19 19 19 19 20
10 11 9 9 9 8 9 11 13 13 10 8 8 9 9 10 11 13 14 14 15 16 17 17 15 13 14 15 15 15 15 15 15 15 15 16 18 19 16 14 14 13 11 11 15 18 17 14 13 13 13 11 9 5 1 2 5 5 5 5 7 10 11 10 9 8 7 7 9 10 10 9 9 12 17 22 23 21 20 21 21 21 21 20 19 19 20
9 10 9 9 9 8 9 12 14 14 12 9 7 8 11 13 13 13 13 14 15 17 17 17 16 15 14 13 11 12 13 15 16 17 16 16 18 18 17 17 18 17 16 17 19 19 17 15 16 16 16 14 12 8 3 2 5 6 6 5 6 8 10 9 8 9 9 9 7 6 6 7 5 4 9 18 23 22 21 22 23 22 22 22 21 21 22
7 8 8 9 9 8 8 8 9 11 12 11 9 9 11 13 14 13 13 13 15 17 18 17 14 11 10 9 9 11 13 16 17 17 17 17 17 17 16 17 20 20 19 18 19 18 17 16 16 17 19 18 15 10 6 4 4 6 7 6 5 7 9 9 9 10 10 9 8 7 8 11 11 8 10 16 23 24 22 22 23 22 22 23 24 24 24
8 8 8 8 8 7 7 7 8 10 12 13 12 12 14 15 14 12 12 13 14 16 17 17 14 11 11 13 14 14 16 17 18 18 18 16 14 11 8 10 15 18 18 18 18 17 17 16 17 18 20 20 16 12 10 8 6 5 5 6 6 8 10 11 12 12 11 12 13 12 11 12 15 15 15 18 23 26 25 24 24 23 24 25 26 26 25
8 8 8 8 7 7 9 9 9 9 11 14 15 14 15 16 16 15 15 16 17 16 16 16 15 14 14 15 16 16 17 18 19 19 19 17 14 10 7 9 14 17 17 18 19 18 17 17 18 19 20 20 17 13 11 11 10 8 6 6 8 10 12 13 14 14 14 14 15 15 13 12 14 16 19 20 23 24 24 23 22 22 23 25 26 26 24
7 7 7 6 6 7 10 10 10 9 10 14 17 16 15 16 17 18 18 19 19 17 16 16 15 14 14 14 14 13 14 15 17 18 17 17 18 15 12 12 14 16 17 18 19 19 18 18 17 17 18 18 17 14 12 11 10 9 8 8 9 9 9 10 12 12 12 12 11 10 12 13 13 13 14 17 20 22 22 22 20 20 22 25 26 24 22
9 8 7 7 9 11 11 11 10 8 9 13 19 20 18 16 16 18 20 20 20 20 19 19 17 16 16 15 13 11 11 13 16 17 15 14 16 18 18 16 15 16 17 18 18 19 19 20 18 17 17 17 16 15 13 11 9 8 8 8 8 7 6 8 10 11 11 11 9 7 9 13 14 11 11 13 16 19 20 21 21 22 24 25 25 23 21
13 14 14 14 14 14 13 12 12 11 13 17 22 24 21 19 19 20 22 22 20 20 20 20 20 19 19 18 17 16 15 14 15 16 13 9 9 15 20 22 20 19 19 18 18 19 21 22 21 20 19 18 17 16 16 15 12 9 7 6 7 7 6 7 7 6 8 10 11 9 9 10 10 8 7 9 12 15 17 19 22 24 25 25 24 23 22
15 17 18 17 15 14 16 18 19 21 22 21 19 19 21 22 22 22 22 22 22 21 22 21 20 19 20 21 21 21 21 22 22 22 19 14 12 17 22 24 24 25 26 26 25 25 25 25 24 23 22 20 17 15 14 15 14 12 9 6 5 5 5 6 5 3 1 4 7 9 9 9 9 9 11 12 13 14 16 18 19 21 23 24 23 23 23
15 15 16 16 16 17 20 23 23 21 19 13 9 12 19 24 24 22 22 24 25 25 26 26 24 23 23 23 21 20 20 21 21 23 24 24 22 23 25 26 26 27 29 30 29 29 27 25 25 25 24 22 20 17 14 14 15 16 15 14 12 8 4 3 5 5 4 3 2 2 2 4 7 10 12 14 16 18 20 19 17 18 20 21 21 22 23
15 14 15 18 19 20 22 22 18 13 11 10 10 13 18 22 23 22 22 24 25 25 25 26 26 26 27 26 25 24 23 20 16 16 21 25 26 26 27 27 27 26 27 28 28 28 26 25 25 26 26 26 26 24 22 20 19 19 20 21 21 18 14 10 6 5 6 6 5 2 2 2 3 4 6 8 12 17 19 18 17 18 19 19 18 19 20
17 17 19 21 21 20 19 17 12 9 10 14 16 18 19 21 22 21 21 21 22 22 22 21 21 23 25 26 25 25 26 24 20 18 22 26 28 27 27 27 27 27 28 28 28 27 26 26 26 26 27 28 28 27 26 26 25 23 22 23 23 22 21 20 18 15 14 13 11 8 6 5 4 4 3 4 5 8 13 14 15 16 16 16 17 18 19
17 18 18 18 18 18 17 13 10 10 15 17 18 18 20 19 16 15 17 19 19 20 22 22 20 19 20 22 22 21 21 21 21 22 23 25 25 26 26 27 27 27 28 28 28 27 27 27 27 28 28 28 28 28 27 26 26 25 25 25 24 23 21 21 21 21 21 21 20 18 16 14 12 9 7 5 4 3 5 9 12 14 16 17 18 19 21
15 15 15 17 19 21 22 20 18 19 21 22 22 22 23 21 18 18 22 23 22 20 21 23 25 24 21 20 19 18 18 18 20 21 21 21 22 23 23 23 24 23 23 24 24 25 25 26 27 27 27 27 28 28 28 28 28 27 27 27 27 26 24 22 22 22 22 22 21 20 19 18 17 16 15 14 13 12 9 5 1 6 11 16 20 22 24
18 18 19 20 21 23 25 26 27 26 25 25 25 24 23 22 21 22 24 26 25 23 20 20 23 26 27 24 22 21 20 19 19 19 19 18 18 19 20 19 19 19 18 18 18 20 21 21 22 23 24 24 25 26 26 27 28 29 29 29 29 30 29 28 26 25 24 23 23 22 22 20 19 18 17 15 15 16 16 15 12 9 5 4 11 16 19
Wind_Direction
209 201 212 217 198 196 204 199 196 198 199 197 198 204 186 156 181 220 203 179 201 235 244 236 237 228 202 205 208 195 193 190 183 189 195 195 195 192 190 190 185 183 184 183 183 185 187 188 188 189 192 194 195 196 196 196 197 198 198 197 197 196 197 200 202 202 202 203 205 206 208 209 211 213 214 214 213 213 212 213 214 216 216 216 214 213 213
207 201 211 216 204 187 202 209 202 196 198 200 203 205 188 180 199 198 176 190 210 222 224 231 243 236 210 202 200 202 213 195 175 175 188 195 197 193 191 190 187 188 188 184 184 186 187 188 188 188 192 195 195 196 197 196 198 199 198 196 197 197 199 202 202 201 201 202 204 205 207 209 210 211 213 213 213 213 213 214 214 215 216 216 215 214 213
207 204 205 215 214 190 187 221 218 204 201 200 203 207 192 183 202 190 180 202 227 241 229 227 242 244 231 170 160 180 205 193 175 175 185 196 199 195 195 193 190 190 188 185 186 186 187 189 189 190 193 195 197 197 197 197 200 199 197 197 199 199 202 203 200 199 201 202 203 204 206 209 210 211 212 212 213 213 213 214 215 215 215 215 215 215 214
210 204 198 211 221 210 203 222 221 205 199 200 202 201 188 183 190 183 181 202 231 250 245 240 232 208 194 184 172 178 187 181 182 188 188 193 196 195 196 194 192 193 190 187 186 186 189 191 191 194 195 195 196 197 198 200 201 199 197 199 200 202 203 202 199 199 201 201 202 204 206 208 210 210 211 211 212 213 213 214 215 214 214 214 215 215 214
214 199 197 206 213 221 229 220 202 193 189 194 209 217 212 204 187 180 197 210 214 221 225 224 213 198 201 204 191 185 186 182 185 191 190 190 189 189 189 186 187 191 191 188 186 186 191 194 196 198 196 194 197 199 200 201 200 198 199 201 202 203 203 200 198 200 201 200 202 204 205 207 208 209 209 210 211 212 213 215 214 213 214 215 215 215 214
219 186 180 189 202 220 237 195 171 176 176 170 177 223 247 239 220 204 219 221 207 198 199 207 204 194 199 239 297 18 126 192 195 193 192 192 190 189 189 186 186 186 187 190 191 192 195 198 200 201 198 197 201 202 202 200 197 197 200 202 202 202 201 199 199 200 200 200 202 204 205 205 206 207 208 210 211 212 213 214 213 213 214 215 215 215 214
236 167 147 170 209 222 239 194 171 175 168 152 132 79 15 331 315 298 109 264 230 199 188 194 185 136 92 57 31 27 32 25 238 207 204 199 191 190 190 189 190 189 188 190 194 198 200 200 201 200 199 202 204 205 203 200 198 198 200 202 202 202 200 200 199 199 199 201 202 203 203 203 204 206 207 208 210 211 212 213 213 214 214 215 215 215 215
259 184 150 182 217 239 298 318 152 154 151 134 105 62 11 351 346 354 111 79 308 269 190 177 152 118 90 63 36 22 26 27 27 12 275 232 205 198 195 196 199 197 194 194 195 198 200 200 200 199 200 203 204 204 203 201 201 202 201 201 202 201 200 200 199 199 199 201 201 201 201 200 202 204 205 206 208 209 211 213 214 215 215 215 215 215 214
242 197 157 171 196 263 326 339 48 166 163 149 126 97 360 346 352 344 117 87 21 357 6 65 134 114 82 55 23 4 5 8 17 21 0 334 291 244 222 216 216 212 208 207 205 203 200 200 200 200 202 203 202 201 200 200 203 204 202 202 202 201 201 200 200 199 199 199 200 199 198 199 201 203 203 205 206 207 208 211 212 213 214 215 215 214 213
259 180 149 126 142 190 247 252 257 263 134 140 128 108 15 333 350 347 82 83 56 47 29 4 70 96 71 54 5 347 352 352 360 11 11 360 341 313 291 267 249 239 228 221 218 214 207 204 206 205 203 202 200 199 198 198 201 203 203 205 205 203 203 202 201 200 199 199 199 197 197 199 200 201 202 203 205 205 206 208 211 212 213 213 213 212 212
267 197 164 151 157 205 222 212 225 99 122 123 103 88 332 301 336 341 52 80 66 68 59 35 56 84 84 104 290 331 342 348 357 4 5 3 353 333 316 289 254 251 250 240 230 221 213 212 212 208 204 200 199 200 200 199 199 201 204 207 207 205 205 204 202 200 199 198 198 197 197 198 199 199 200 202 203 204 205 207 210 211 210 209 209 209 210
229 207 171 162 177 217 205 181 161 136 127 104 88 107 219 252 310 323 46 76 63 69 75 61 60 77 115 166 216 333 344 348 356 4 3 357 353 350 344 329 293 251 240 238 232 221 216 220 219 211 202 198 198 203 205 201 199 201 205 208 209 208 207 205 202 200 199 198 198 197 196 197 198 198 199 200 201 201 202 205 207 207 206 204 205 206 208
218 198 165 149 215 236 205 199 186 142 117 101 118 180 213 181 148 341 55 82 72 64 72 72 74 86 106 127 96 11 19 17 9 6 0 354 354 357 357 354 345 304 238 221 222 224 222 223 224 217 205 200 200 204 205 202 202 207 209 210 210 209 207 204 201 200 199 198 197 196 195 195 195 196 197 197 197 197 198 200 200 199 199 200 202 204 206
258 197 138 123 190 253 327 330 339 96 121 174 189 178 138 117 106 56 55 70 70 70 74 80 98 108 94 78 59 34 33 36 25 10 4 4 1 355 356 5 5 350 313 234 224 233 232 229 227 220 211 210 212 210 206 204 207 210 210 210 208 206 204 202 200 199 198 197 194 192 191 191 190 191 193 193 192 193 194 193 191 191 192 194 197 199 200
307 341 61 105 139 304 320 324 334 36 115 171 159 115 96 97 87 75 64 49 44 64 71 68 72 76 62 54 50 39 31 29 25 19 14 10 2 354 353 359 3 354 335 324 179 205 218 224 223 212 203 209 220 223 219 217 216 213 209 207 204 202 200 198 197 195 193 191 189 186 185 185 185 185 186 186 187 188 187 185 184 185 186 186 186 184 185
331 348 8 36 307 299 304 296 189 83 95 135 131 113 106 98 84 83 77 55 46 61 74 67 52 45 42 38 37 40 35 26 20 16 14 9 3 358 351 351 359 2 346 328 328 188 180 196 206 203 199 200 206 214 222 225 223 215 206 200 195 193 193 192 191 190 187 184 182 179 178 179 179 178 179 180 183 185 184 182 180 177 176 176 173 169 170
316 274 294 322 313 309 321 11 98 91 85 98 107 106 104 97 91 92 88 79 67 63 77 79 64 48 42 36 33 36 35 28 21 15 14 12 4 358 353 354 1 9 10 354 345 351 10 22 195 197 196 194 193 201 208 209 204 195 191 187 184 185 186 184 182 180 177 176 175 173 174 175 174 173 175 177 178 178 177 176 172 167 166 168 167 165 168
312 270 298 330 332 346 7 21 52 81 90 95 97 99 98 91 90 90 90 91 84 75 81 84 75 66 59 50 42 37 32 26 18 12 12 12 7 2 359 356 360 10 22 21 11 7 9 11 14 23 170 180 183 190 189 185 181 180 178 176 176 178 177 175 174 171 167 166 167 167 170 172 173 173 174 173 170 168 168 166 164 162 162 163 166 168 171
337 316 334 332 330 358 28 30 33 48 67 82 86 90 94 92 88 86 87 91 88 81 82 85 82 73 65 63 57 44 35 27 16 10 9 6 3 1 356 352 357 14 32 36 30 24 19 19 24 34 50 65 83 118 148 162 171 173 171 169 167 165 165 167 166 163 159 158 158 161 163 165 166 167 168 166 163 161 162 161 161 163 164 165 167 168 170
341 271 300 312 321 9 34 40 41 36 45 67 78 84 91 90 87 86 85 87 89 82 77 82 83 71 57 57 59 50 40 33 20 13 10 3 357 354 352 354 4 25 43 44 40 39 33 29 33 44 56 67 85 98 99 119 142 144 142 151 155 153 155 159 160 159 157 153 150 149 149 149 150 152 156 160 160 160 165 167 166 165 165 166 169 171 172
284 253 289 310 335 19 23 24 35 38 35 54 73 86 93 94 95 93 84 78 82 84 80 81 84 77 62 55 60 57 48 37 26 18 14 10 4 358 353 354 8 37 56 55 49 47 40 37 41 51 60 70 88 98 98 108 121 115 101 100 119 135 142 142 141 145 145 142 139 137 135 135 135 138 147 156 159 161 167 175 177 175 173 173 175 178 180
283 247 319 335 8 37 13 4 19 28 26 47 71 82 88 90 94 98 95 89 81 79 78 79 82 83 74 63 65 64 54 43 36 28 21 15 12 10 4 358 4 26 50 63 65 59 47 44 51 63 76 86 97 109 118 123 125 123 116 102 87 95 113 117 119 125 126 125 126 127 128 128 125 123 132 146 157 161 165 172 179 182 183 184 184 185 186
281 172 19 3 40 58 19 8 25 22 8 29 66 72 76 80 81 88 95 96 88 80 74 70 75 82 77 65 66 64 54 45 43 39 32 25 16 13 16 12 7 14 24 37 51 55 45 39 44 57 83 104 114 122 131 135 134 132 129 120 107 105 109 110 115 122 121 118 118 120 121 122 121 118 115 120 136 150 157 163 171 177 184 188 190 192 193
273 144 114 68 65 60 19 23 43 31 360 0 43 58 62 65 61 65 78 87 92 93 86 72 71 79 77 66 65 67 59 47 45 44 40 35 28 24 26 25 20 20 24 25 29 33 26 14 15 42 83 104 120 133 142 146 141 135 130 125 122 127 132 134 136 137 132 123 119 118 118 120 122 120 114 107 106 118 136 150 160 167 175 183 189 195 201
224 128 130 113 92 80 46 43 56 47 14 1 22 43 53 54 52 54 60 65 74 85 87 79 70 71 76 74 69 68 65 53 49 53 51 43 36 31 30 27 24 24 26 26 30 36 36 30 33 50 70 89 125 139 141 143 141 135 131 130 131 136 142 145 145 141 131 121 115 114 115 116 119 121 121 116 109 107 117 133 147 158 167 176 183 189 196
172 153 137 115 102 97 98 78 65 48 30 29 32 32 39 49 53 51 50 51 51 56 69 75 68 64 71 78 75 72 70 59 50 50 55 53 43 34 31 30 30 32 34 33 33 34 37 45 50 50 53 68 105 115 115 125 134 134 133 134 136 139 143 142 136 131 126 121 119 120 121 124 126 127 130 130 128 123 120 123 133 145 158 168 176 184 189
195 237 159 118 108 111 126 119 101 73 42 47 53 39 24 34 49 52 48 46 46 47 49 52 54 59 63 67 72 75 72 64 54 47 49 55 50 42 41 39 38 41 42 40 36 31 34 47 58 55 52 64 98 109 107 113 120 120 121 127 129 131 133 132 128 126 126 126 128 131 135 139 142 143 144 144 145 144 142 138 136 137 144 156 167 178 186
24 332 280 167 136 133 138 128 113 98 72 51 57 55 35 28 41 49 45 38 38 43 44 40 41 50 52 51 61 70 67 64 60 50 47 52 50 45 46 45 44 46 45 41 37 35 35 38 44 53 59 68 96 115 118 120 120 118 118 119 118 119 122 124 125 126 128 132 136 140 142 144 146 148 148 148 148 147 146 144 142 139 141 148 157 167 175
30 3 338 131 123 123 122 110 104 103 100 88 73 65 55 50 51 50 43 34 30 35 37 33 36 46 49 46 51 58 60 62 64 60 58 59 55 49 45 45 46 46 43 37 31 32 37 37 33 35 46 61 85 108 116 119 117 115 116 116 115 116 119 123 127 130 132 135 140 143 144 144 145 146 146 148 150 149 146 144 142 141 142 146 151 154 158
38 16 7 69 92 92 90 89 93 102 108 108 103 86 72 72 72 62 46 37 37 37 33 31 39 49 52 49 49 52 51 52 55 58 61 63 62 56 49 47 44 41 37 32 25 22 30 39 35 28 33 48 70 95 109 114 114 114 117 120 122 126 129 132 134 133 133 135 140 143 143 144 146 145 145 148 151 152 150 148 148 147 147 150 153 155 155
55 30 9 28 66 74 70 67 72 79 85 94 100 93 78 69 73 71 57 45 44 40 38 45 53 54 54 57 61 63 61 55 50 49 51 56 62 64 61 58 53 42 35 36 30 24 26 33 33 30 38 51 65 82 98 108 113 115 118 121 125 130 135 137 137 137 137 139 141 142 141 143 146 146 145 146 150 152 152 151 151 151 151 152 155 160 162
61 43 18 16 45 64 64 60 59 60 58 57 60 66 67 67 74 80 73 59 57 50 46 51 54 50 54 61 62 61 61 58 55 51 48 47 50 60 69 72 69 58 46 41 36 31 28 27 28 32 44 56 65 74 88 103 112 115 118 123 127 133 138 139 140 143 143 141 142 145 147 149 151 150 149 151 156 157 155 153 153 153 155 157 161 166 168
75 68 43 27 44 63 71 72 68 64 61 54 46 48 56 59 64 74 82 78 72 59 54 60 58 56 61 64 57 50 49 52 52 50 47 45 45 50 62 72 73 66 55 46 41 37 31 27 29 36 44 53 62 68 79 97 113 120 125 129 130 134 138 139 140 143 145 145 150 155 157 156 156 156 155 159 163 162 157 155 154 155 160 167 171 173 174
92 109 120 104 82 85 90 92 88 83 78 69 54 50 52 51 53 57 58 59 58 58 68 74 65 60 62 62 56 51 47 45 45 37 33 41 51 59 64 67 69 67 58 47 42 40 33 28 30 35 40 50 62 67 72 83 99 112 121 128 131 134 137 139 141 143 144 148 156 161 162 162 163 163 162 163 166 164 161 160 162 165 169 175 178 180 180
85 100 110 126 131 117 106 101 103 104 98 85 71 60 52 47 48 48 45 46 50 56 68 76 67 59 57 56 55 56 52 46 43 34 30 35 48 63 70 69 64 61 56 48 43 41 34 26 26 29 34 45 56 62 67 77 91 101 108 117 127 133 138 145 150 150 148 152 160 166 167 167 168 168 167 167 169 168 167 166 169 172 176 178 181 183 182
84 85 85 92 94 90 87 86 88 90 86 79 74 68 58 51 50 47 44 46 51 55 63 69 66 60 56 54 56 62 64 61 54 43 40 45 51 55 58 59 55 55 54 45 41 43 39 27 25 30 36 40 44 47 55 70 91 103 111 125 141 147 151 158 162 158 155 162 171 173 171 171 172 172 169 167 167 168 169 168 169 174 179 181 182 183 181
68 72 73 71 72 74 75 74 75 77 76 73 72 72 66 58 55 56 55 54 54 58 63 65 63 61 59 60 63 65 68 72 69 58 52 56 57 53 48 44 42 43 42 33 37 51 65 63 51 51 52 48 39 37 54 93 126 131 131 145 157 156 154 155 157 155 160 172 174 166 158 157 163 165 164 163 165 168 169 169 170 175 180 181 180 180 181
71 73 74 74 72 69 66 66 67 69 70 67 63 64 65 63 61 60 58 55 59 65 67 65 65 65 63 62 63 64 66 71 71 63 55 55 57 54 48 39 37 40 40 41 50 62 73 81 78 70 62 51 38 31 49 196 199 183 165 161 162 160 158 152 144 139 141 152 155 149 139 139 152 162 163 164 169 173 173 172 172 174 176 178 179 179 180
74 75 73 72 71 68 65 66 67 69 71 72 67 61 60 61 61 60 57 55 62 69 71 69 67 66 64 62 62 61 62 67 68 62 55 53 56 56 51 46 48 51 53 55 58 62 66 70 68 62 57 51 43 41 59 174 198 187 177 175 168 164 163 158 143 133 132 134 140 151 160 165 185 213 191 177 174 175 176 175 173 173 176 178 180 181 181
66 68 69 69 70 69 68 68 67 67 68 69 67 61 59 60 61 60 56 55 62 71 74 73 70 65 62 62 60 56 58 62 64 61 58 55 56 57 53 47 49 53 53 54 56 57 58 60 59 51 47 45 44 50 75 119 158 174 183 189 177 163 168 173 166 155 149 148 152 166 174 166 163 177 197 187 176 173 174 175 173 174 176 178 178 180 182
59 61 64 67 69 70 72 70 66 61 58 57 57 60 64 65 65 62 58 57 63 69 72 73 74 71 66 66 66 63 61 59 56 54 54 53 52 53 49 40 44 50 53 53 52 52 53 54 52 46 42 40 43 57 82 97 105 129 169 187 180 171 175 178 172 164 163 166 169 174 173 161 153 160 177 182 175 170 173 177 175 174 174 175 176 179 182
56 58 59 60 61 63 64 64 63 58 52 52 56 61 63 64 64 63 60 59 62 65 67 72 77 79 76 74 73 68 64 61 58 56 56 56 55 56 55 45 43 48 53 54 51 50 50 49 47 45 42 38 40 55 78 86 85 92 120 151 158 161 167 171 169 165 164 167 171 173 174 175 175 176 179 178 172 168 169 170 167 168 174 177 178 181 184
51 54 60 62 63 61 60 59 59 55 48 48 54 60 63 62 61 58 57 57 61 64 66 67 71 74 74 73 72 67 63 62 62 60 57 55 54 54 54 51 45 43 46 48 46 45 45 44 44 46 45 41 39 48 62 68 69 71 83 104 113 113 124 141 150 152 154 161 171 176 175 179 183 176 163 157 159 162 164 163 161 169 181 184 182 182 184
44 46 52 54 51 50 49 48 49 49 45 42 46 53 60 65 65 63 63 63 63 63 63 62 61 60 60 58 58 62 67 69 66 60 55 51 46 42 40 41 39 35 34 36 38 39 39 38 39 46 50 46 43 44 45 48 56 66 75 92 101 97 105 128 133 127 128 141 161 177 171 165 159 140 123 134 152 161 167 172 178 184 188 187 183 182 183
52 54 56 56 53 51 52 51 49 50 51 48 45 47 54 63 68 70 70 69 64 62 64 65 63 62 61 60 60 65 69 69 62 55 51 45 33 34 39 44 45 40 36 33 32 31 30 29 29 34 39 41 43 44 42 39 45 55 63 80 98 105 119 138 146 143 143 151 164 178 181 174 166 155 158 179 184 178 178 186 191 191 190 188 187 187 188
58 59 60 59 56 53 55 57 57 56 56 53 47 43 49 57 63 65 66 65 61 58 57 58 59 60 62 64 66 67 65 59 54 53 55 56 49 45 47 51 52 52 52 50 45 41 37 34 33 35 36 36 39 43 39 33 36 42 45 49 61 75 90 100 99 85 131 190 199 206 212 217 215 203 197 202 204 196 192 195 196 193 193 195 195 196 197
57 57 55 54 51 49 51 53 54 53 54 54 46 41 48 56 62 64 63 62 61 59 58 58 60 61 63 64 64 64 64 60 54 51 54 59 60 56 53 54 57 60 61 59 55 51 49 46 44 44 44 42 43 44 39 32 34 41 47 49 47 42 48 93 111 111 117 140 182 212 237 255 247 230 221 224 224 212 200 192 186 183 186 190 195 200 205
56 54 51 50 48 46 47 49 49 47 46 48 48 49 53 57 59 58 57 57 58 59 62 66 67 66 67 68 68 68 70 69 59 46 49 58 64 62 59 59 62 65 65 61 56 53 52 50 49 48 48 48 49 50 51 50 50 50 50 51 51 51 51 55 67 93 116 123 121 92 35 352 293 255 240 236 224 206 193 186 182 181 181 181 183 188 195
57 56 54 51 47 44 45 47 47 44 47 50 51 52 56 59 57 53 52 52 52 53 59 67 70 70 72 74 72 70 70 71 69 64 63 65 66 65 63 63 64 65 64 62 57 53 52 51 50 51 53 53 52 53 54 56 56 55 53 52 54 56 58 59 62 66 71 74 71 63 48 22 350 327 315 300 262 220 201 195 193 191 189 187 185 183 183
61 59 56 53 49 46 46 46 45 47 49 51 50 51 53 54 50 43 41 45 47 49 52 55 54 58 70 80 81 76 71 68 68 70 71 69 65 64 65 65 64 62 61 60 57 54 53 53 52 53 56 58 57 56 58 58 57 56 54 53 55 58 61 62 62 63 63 64 66 66 65 60 56 58 62 46 11 315 229 215 212 207 202 200 196 191 188
65 63 60 58 56 53 50 47 46 47 47 47 47 47 48 48 44 39 38 41 44 46 47 45 39 37 48 66 75 73 69 68 69 69 69 68 65 63 62 62 61 59 57 56 56 54 54 55 56 57 59 60 60 60 61 62 61 59 58 55 55 57 59 60 60 58 58 60 62 64 64 62 61 61 61 57 50 49 53 58 208 219 214 211 207 201 196
65 63 62 60 59 57 55 52 51 51 51 50 51 51 51 51 50 46 45 48 49 49 49 47 41 36 38 44 47 47 50 57 66 70 71 69 64 58 55 57 60 58 53 52 55 56 55 56 59 60 61 61 60 60 60 61 62 62 61 59 57 57 56 57 58 58 57 56 56 56 56 57 57 56 53 51 48 49 52 55 58 62 79 173 200 202 199